Fort Myers, FL

12:50 PM EDT on March 28, 2017 (GMT -0400)
Page

Weather History for KFMY - December, 2011

Change the Weather History Date:

Thursday, December 1, 2011

  Actual Average Record
Temperature  
Mean Temperature 61 °F 69 °F  
Max Temperature 72 °F 79 °F 88 °F (1931)
Min Temperature 49 °F 59 °F 36 °F (1957)
Degree Days  
Heating Degree Days 4 1  
Month to date heating degree days 4 1  
Since 1 July heating degree days 8 19  
Cooling Degree Days 0 5  
Month to date cooling degree days 0 5  
Year to date cooling degree days 4094 3868  
Growing Degree Days 10 (Base 50)    
Moisture  
Dew Point 48 °F    
Average Humidity 68    
Maximum Humidity 89    
Minimum Humidity 41    
Precipitation  
Precipitation 0.00 in 0.04 in 3.64 in (1925)
Month to date precipitation 0.00 0.04  
Year to date precipitation 65.41 54.26  
Sea Level Pressure  
Sea Level Pressure 30.15 in    
Wind  
Wind Speed 8 mph (NNE)    
Max Wind Speed 16 mph    
Max Gust Speed 22 mph    
Visibility 10 miles    
Events      
T = Trace of Precipitation, MM = Missing Value Source: NWS Daily Summary

Daily Weather History Graph

Daily Weather History Graph

Search for Another Location

Airport or City:

Trip Planner

Search our weather history database for the weather conditions in past years. The results will help you decide how hot, cold, wet, or windy it might be!

Date:

Astronomy

Dec. 01, 2011 Rise Set
Actual Time 6:58 AM EST 5:34 PM EST
Civil Twilight 6:33 AM EST 5:59 PM EST
Nautical Twilight 6:04 AM EST 6:27 PM EST
Astronomical Twilight 5:36 AM EST 6:56 PM EST
Moon 12:05 PM EST (12/1) No Moon Set
Length of Visible Light 11h 26m
Length of Day
10h 35m
Waxing Crescent, 43% of the Moon is Illuminated
Dec 1
Waxing Crescent
Dec 2
First Quarter
Dec 10
Full
Dec 17
Last Quarter
Dec 24
New

Hourly Weather History & Observations

Time (EST) Temp. Dew Point Humidity Pressure Visibility Wind Dir Wind Speed Gust Speed Precip Events Conditions
12:53 AM 52.0 °F 48.0 °F 86% 30.10 in 10.0 mi NNE 6.9 mph - N/A   Clear
1:53 AM 52.0 °F 48.0 °F 86% 30.10 in 10.0 mi North 5.8 mph - N/A   Clear
2:53 AM 52.0 °F 46.9 °F 83% 30.09 in 10.0 mi NNE 9.2 mph - N/A   Clear
3:53 AM 51.1 °F 46.0 °F 83% 30.10 in 10.0 mi NNE 11.5 mph - N/A   Clear
4:53 AM 50.0 °F 44.1 °F 80% 30.10 in 10.0 mi NNE 6.9 mph - N/A   Clear
5:53 AM 48.9 °F 44.1 °F 83% 30.12 in 10.0 mi NNE 5.8 mph - N/A   Clear
6:53 AM 48.9 °F 44.1 °F 83% 30.14 in 10.0 mi North 6.9 mph - N/A   Clear
7:53 AM 51.1 °F 44.1 °F 77% 30.17 in 10.0 mi North 9.2 mph - N/A   Clear
8:53 AM 54.0 °F 44.1 °F 69% 30.18 in 10.0 mi NNE 11.5 mph - N/A   Clear
9:53 AM 57.0 °F 45.0 °F 64% 30.19 in 10.0 mi North 9.2 mph - N/A   Clear
10:53 AM 63.0 °F 46.9 °F 56% 30.18 in 10.0 mi North 9.2 mph - N/A   Clear
11:53 AM 64.9 °F 48.9 °F 56% 30.16 in 10.0 mi NNE 8.1 mph - N/A   Clear
12:53 PM 68.0 °F 50.0 °F 52% 30.13 in 10.0 mi NNE 8.1 mph - N/A   Clear
1:53 PM 70.0 °F 48.9 °F 47% 30.12 in 10.0 mi North 12.7 mph 18.4 mph N/A   Clear
2:53 PM 71.1 °F 48.0 °F 44% 30.12 in 10.0 mi NNE 8.1 mph 17.3 mph N/A   Clear
4:53 PM 70.0 °F 48.0 °F 46% 30.14 in 10.0 mi NE 9.2 mph - N/A   Clear
5:53 PM 64.9 °F 50.0 °F 58% 30.15 in 10.0 mi NNE 5.8 mph - N/A   Clear
6:53 PM 64.0 °F 51.1 °F 63% 30.17 in 10.0 mi NNE 6.9 mph - N/A   Clear
7:53 PM 62.1 °F 50.0 °F 65% 30.19 in 10.0 mi NE 4.6 mph - N/A   Clear
8:53 PM 60.1 °F 51.1 °F 72% 30.20 in 10.0 mi NE 5.8 mph - N/A   Clear
9:53 PM 60.1 °F 51.1 °F 72% 30.22 in 10.0 mi NNE 3.5 mph - N/A   Clear
10:53 PM 60.1 °F 52.0 °F 75% 30.23 in 10.0 mi NNE 6.9 mph - N/A   Clear